• In Denmark
  • List of Countries
  • For 7 days
  • Water Temperature
  • Satellite Maps
  • Weather Map
  • Weather Widgets
  • user-avatar
    Login

    Hourly Weather Francistown

    Today, 25 May, Friday

    Time Temperature Precipitation Wind Pressure Humidity
    00:00 +18°C° 0 mm 2 mps 678 mmHg 45%
    01:00 +17°C° 0 mm 2 mps 678 mmHg 46%
    02:00 +17°C° 0 mm 2 mps 678 mmHg 46%
    03:00 +17°C° 0 mm 2 mps 678 mmHg 45%
    04:00 +16°C° 0 mm 2 mps 678 mmHg 45%
    05:00 +16°C° 0 mm 1 mps 678 mmHg 45%
    06:00 +18°C° 0 mm 1 mps 678 mmHg 42%
    07:00 +19°C° 0 mm 1 mps 679 mmHg 40%
    08:00 +21°C° 0 mm 1 mps 680 mmHg 37%
    09:00 +23°C° 0 mm 1 mps 680 mmHg 33%
    10:00 +25°C° 0 mm 2 mps 680 mmHg 29%
    11:00 +27°C° 0 mm 2 mps 681 mmHg 25%
    12:00 +28°C° 0 mm 2 mps 680 mmHg 24%
    13:00 +28°C° 0 mm 2 mps 680 mmHg 23%
    14:00 +29°C° 0 mm 3 mps 679 mmHg 21%
    15:00 +28°C° 0 mm 3 mps 679 mmHg 23%
    16:00 +28°C° 0 mm 2 mps 679 mmHg 24%
    17:00 +27°C° 0 mm 2 mps 678 mmHg 26%
    18:00 +25°C° 0 mm 2 mps 678 mmHg 29%
    19:00 +24°C° 0 mm 2 mps 678 mmHg 32%
    20:00 +21°C° 0 mm 2 mps 678 mmHg 36%
    21:00 +20°C° 0 mm 2 mps 678 mmHg 37%
    22:00 +20°C° 0 mm 2 mps 678 mmHg 39%
    23:00 +19°C° 0 mm 2 mps 678 mmHg 41%

    Tomorrow, 26 May, Saturday

    Time Temperature Precipitation Wind Pressure Humidity
    00:00 +19°C° 0 mm 2 mps 678 mmHg 42%
    01:00 +18°C° 0 mm 2 mps 678 mmHg 43%
    02:00 +18°C° 0 mm 2 mps 678 mmHg 44%
    03:00 +18°C° 0 mm 2 mps 678 mmHg 45%
    04:00 +17°C° 0 mm 2 mps 678 mmHg 45%
    05:00 +17°C° 0 mm 2 mps 678 mmHg 45%
    06:00 +19°C° 0 mm 1 mps 679 mmHg 44%
    07:00 +20°C° 0 mm 1 mps 679 mmHg 42%
    08:00 +20°C° 0 mm 1 mps 680 mmHg 41%
    09:00 +23°C° 0 mm 2 mps 680 mmHg 36%
    10:00 +25°C° 0 mm 2 mps 681 mmHg 32%
    11:00 +27°C° 0 mm 3 mps 681 mmHg 27%
    12:00 +28°C° 0 mm 3 mps 681 mmHg 26%
    13:00 +28°C° 0 mm 3 mps 680 mmHg 25%
    14:00 +29°C° 0 mm 3 mps 680 mmHg 24%
    15:00 +28°C° 0 mm 3 mps 680 mmHg 25%
    16:00 +28°C° 0 mm 2 mps 679 mmHg 27%
    17:00 +27°C° 0 mm 2 mps 679 mmHg 28%
    18:00 +25°C° 0 mm 2 mps 679 mmHg 31%
    19:00 +22°C° 0 mm 3 mps 680 mmHg 33%
    20:00 +21°C° 0 mm 3 mps 680 mmHg 36%
    21:00 +20°C° 0 mm 3 mps 680 mmHg 38%
    22:00 +19°C° 0 mm 3 mps 680 mmHg 39%
    23:00 +19°C° 0 mm 3 mps 680 mmHg 40%

    Day after tomorrow, 27 May, Sunday

    Time Temperature Precipitation Wind Pressure Humidity
    00:00 +18°C° 0 mm 3 mps 680 mmHg 43%
    01:00 +18°C° 0 mm 3 mps 680 mmHg 46%
    02:00 +17°C° 0 mm 2 mps 680 mmHg 49%
    03:00 +17°C° 0 mm 2 mps 680 mmHg 52%
    04:00 +17°C° 0 mm 2 mps 680 mmHg 55%
    05:00 +16°C° 0 mm 2 mps 680 mmHg 58%
    06:00 +17°C° 0 mm 2 mps 680 mmHg 57%
    07:00 +18°C° 0 mm 3 mps 681 mmHg 56%
    08:00 +19°C° 0 mm 3 mps 681 mmHg 55%
    09:00 +21°C° 0 mm 3 mps 682 mmHg 47%
    10:00 +25°C° 0 mm 3 mps 682 mmHg 40%
    11:00 +27°C° 0 mm 4 mps 683 mmHg 32%
    12:00 +28°C° 0 mm 3 mps 682 mmHg 29%
    13:00 +28°C° 0 mm 3 mps 682 mmHg 27%
    14:00 +29°C° 0 mm 3 mps 681 mmHg 24%
    15:00 +28°C° 0 mm 3 mps 681 mmHg 25%
    16:00 +28°C° 0 mm 3 mps 681 mmHg 27%
    17:00 +27°C° 0 mm 2 mps 680 mmHg 28%
    18:00 +25°C° 0 mm 3 mps 681 mmHg 33%
    19:00 +22°C° 0 mm 3 mps 681 mmHg 37%
    20:00 +21°C° 0 mm 3 mps 681 mmHg 41%
    21:00 +20°C° 0 mm 3 mps 681 mmHg 45%
    22:00 +19°C° 0 mm 3 mps 681 mmHg 48%
    23:00 +19°C° 0 mm 3 mps 681 mmHg 51%

    28 May, Monday

    Time Temperature Precipitation Wind Pressure Humidity
    00:00 +18°C° 0 mm 3 mps 681 mmHg 54%
    01:00 +18°C° 0 mm 2 mps 681 mmHg 57%
    02:00 +17°C° 0 mm 2 mps 681 mmHg 60%
    03:00 +17°C° 0 mm 2 mps 681 mmHg 62%
    04:00 +16°C° 0 mm 2 mps 680 mmHg 65%
    05:00 +16°C° 0 mm 2 mps 680 mmHg 67%
    06:00 +17°C° 0 mm 2 mps 681 mmHg 64%
    07:00 +18°C° 0 mm 2 mps 681 mmHg 62%
    08:00 +18°C° 0 mm 2 mps 682 mmHg 59%
    09:00 +21°C° 0 mm 2 mps 682 mmHg 49%
    10:00 +24°C° 0 mm 2 mps 683 mmHg 39%
    11:00 +27°C° 0 mm 2 mps 683 mmHg 29%
    12:00 +28°C° 0 mm 2 mps 682 mmHg 25%
    13:00 +28°C° 0 mm 2 mps 682 mmHg 22%
    14:00 +29°C° 0 mm 2 mps 681 mmHg 18%
    15:00 +28°C° 0 mm 2 mps 681 mmHg 20%
    16:00 +28°C° 0 mm 2 mps 680 mmHg 21%
    17:00 +27°C° 0 mm 2 mps 680 mmHg 22%
    18:00 +25°C° 0 mm 2 mps 680 mmHg 25%
    19:00 +23°C° 0 mm 2 mps 680 mmHg 29%
    20:00 +20°C° 0 mm 3 mps 680 mmHg 32%
    21:00 +20°C° 0 mm 3 mps 680 mmHg 35%
    22:00 +19°C° 0 mm 3 mps 680 mmHg 38%
    23:00 +18°C° 0 mm 2 mps 680 mmHg 41%

    29 May, Tuesday

    Time Temperature Precipitation Wind Pressure Humidity
    00:00 +18°C° 0 mm 2 mps 680 mmHg 44%
    01:00 +17°C° 0 mm 2 mps 679 mmHg 46%
    02:00 +17°C° 0 mm 2 mps 679 mmHg 48%
    03:00 +17°C° 0 mm 2 mps 679 mmHg 49%
    04:00 +16°C° 0 mm 2 mps 679 mmHg 50%
    05:00 +16°C° 0 mm 2 mps 679 mmHg 51%
    06:00 +17°C° 0 mm 2 mps 679 mmHg 49%
    07:00 +18°C° 0 mm 2 mps 680 mmHg 47%
    08:00 +19°C° 0 mm 2 mps 680 mmHg 45%
    09:00 +23°C° 0 mm 2 mps 681 mmHg 39%
    10:00 +25°C° 0 mm 2 mps 681 mmHg 33%
    11:00 +28°C° 0 mm 2 mps 681 mmHg 26%
    12:00 +29°C° 0 mm 2 mps 680 mmHg 24%
    13:00 +30°C° 0 mm 2 mps 680 mmHg 22%
    14:00 +30°C° 0 mm 2 mps 679 mmHg 20%
    15:00 +30°C° 0 mm 2 mps 679 mmHg 21%
    16:00 +29°C° 0 mm 2 mps 678 mmHg 23%
    17:00 +28°C° 0 mm 2 mps 678 mmHg 24%
    18:00 +27°C° 0 mm 2 mps 678 mmHg 27%
    19:00 +25°C° 0 mm 2 mps 678 mmHg 29%
    20:00 +23°C° 0 mm 2 mps 678 mmHg 31%
    21:00 +23°C° 0 mm 2 mps 678 mmHg 32%
    22:00 +23°C° 0 mm 1 mps 678 mmHg 33%
    23:00 +23°C° 0 mm 1 mps 678 mmHg 34%

    30 May, Wednesday

    Time Temperature Precipitation Wind Pressure Humidity
    00:00 +22°C° 0 mm 1 mps 678 mmHg 36%
    01:00 +21°C° 0 mm 2 mps 678 mmHg 37%
    02:00 +20°C° 0 mm 2 mps 677 mmHg 38%
    03:00 +19°C° 0 mm 2 mps 677 mmHg 41%
    04:00 +20°C° 0 mm 1 mps 677 mmHg 43%
    05:00 +19°C° 0 mm 1 mps 677 mmHg 46%
    06:00 +20°C° 0 mm 1 mps 678 mmHg 45%
    07:00 +21°C° 0 mm 1 mps 678 mmHg 44%
    08:00 +21°C° 0 mm 1 mps 679 mmHg 44%
    09:00 +24°C° 0 mm 1 mps 679 mmHg 38%
    10:00 +27°C° 0 mm 1 mps 680 mmHg 32%
    11:00 +27°C° 0 mm 0 mps 680 mmHg 26%
    12:00 +30°C° 0 mm 1 mps 680 mmHg 23%
    13:00 +30°C° 0 mm 1 mps 679 mmHg 21%
    14:00 +31°C° 0 mm 1 mps 678 mmHg 19%
    15:00 +30°C° 0 mm 1 mps 678 mmHg 20%
    16:00 +29°C° 0 mm 2 mps 678 mmHg 21%
    17:00 +28°C° 0 mm 2 mps 678 mmHg 22%
    18:00 +27°C° 0 mm 3 mps 678 mmHg 26%
    19:00 +26°C° 0 mm 3 mps 678 mmHg 29%
    20:00 +23°C° 0 mm 4 mps 679 mmHg 32%
    21:00 +23°C° 0 mm 4 mps 679 mmHg 36%
    22:00 +22°C° 0 mm 4 mps 679 mmHg 40%
    23:00 +21°C° 0 mm 4 mps 679 mmHg 43%
    Show more